Prague, Czech Republic

6:23 AM CET on February 20, 2017 (GMT +0100)
Ruzyne

Weather History for LKPR - July, 2014

Change the Weather History Date:

Friday, July 4, 2014

  Actual Average Record
Temperature  
Mean Temperature 68 °F -  
Max Temperature 83 °F 74 °F 92 °F (2015)
Min Temperature 53 °F 53 °F 46 °F (2016)
Cooling Degree Days 3    
Growing Degree Days 18 (Base 50)    
Moisture  
Dew Point 48 °F    
Average Humidity 45    
Maximum Humidity 82    
Minimum Humidity 16    
Precipitation  
Precipitation 0.00 in 0.09 in - ()
Sea Level Pressure  
Sea Level Pressure 30.02 in    
Wind  
Wind Speed 9 mph ()    
Max Wind Speed 14 mph    
Max Gust Speed -    
Averages and records for this station are not official NWS values.
T = Trace of Precipitation, MM = Missing Value Source: Averaged Metar Reports

Daily Weather History Graph

Daily Weather History Graph

Search for Another Location

Airport or City:

Trip Planner

Search our weather history database for the weather conditions in past years. The results will help you decide how hot, cold, wet, or windy it might be!

Date:

Astronomy

Jul. 04, 2014 Rise Set
Actual Time 4:59 AM CEST 9:14 PM CEST
Civil Twilight 4:15 AM CEST 9:58 PM CEST
Nautical Twilight 3:11 AM CEST 11:02 PM CEST
Astronomical Twilight 1:39 AM CEST 12:34 AM CEST
Moon 12:21 PM CEST (7/4) No Moon Set
Length of Visible Light 17h 43m
Length of Day
16h 15m
Waxing Crescent, 39% of the Moon is Illuminated
Jul 4
Waxing Crescent
Jul 5
First Quarter
Jul 12
Full
Jul 19
Last Quarter
Jul 27
New

Hourly Weather History & Observations

Time (CEST) Temp. Dew Point Humidity Pressure Visibility Wind Dir Wind Speed Gust Speed Precip Events Conditions
12:00 AM 60 °F 49 °F 59% 30.18 in 44 mi SW 11.2 mph - -  
12:00 AM 60.8 °F 50.0 °F 68% 30.18 in - SSW 11.5 mph - N/A   Clear
12:30 AM 60.8 °F 50.0 °F 68% 30.18 in - SSW 12.7 mph - N/A   Clear
1:00 AM 60 °F 49 °F 56% 30.18 in 44 mi SW 11.2 mph - -  
1:00 AM 59.0 °F 48.2 °F 67% 30.18 in - SSW 12.7 mph - N/A   Clear
1:30 AM 59.0 °F 48.2 °F 67% 30.18 in - SSW 11.5 mph - N/A   Clear
2:00 AM 59 °F 48 °F 59% 30.17 in 44 mi SSW 8.9 mph - -  
2:00 AM 59.0 °F 48.2 °F 67% 30.18 in - SSW 10.4 mph - N/A   Clear
2:30 AM 57.2 °F 48.2 °F 72% 30.18 in - SSW 10.4 mph - N/A   Clear
3:00 AM 57 °F 48 °F 65% 30.17 in 44 mi South 8.9 mph - -  
3:00 AM 57.2 °F 48.2 °F 72% 30.15 in - South 8.1 mph - N/A   Clear
3:30 AM 55.4 °F 48.2 °F 77% 30.15 in - Variable 2.3 mph - N/A   Clear
4:00 AM 57 °F 48 °F 64% 30.17 in 37 mi East 2.2 mph - -  
4:00 AM 57.2 °F 48.2 °F 72% 30.15 in - Variable 2.3 mph - N/A   Clear
4:30 AM 57.2 °F 46.4 °F 67% 30.15 in - SSE 3.5 mph - N/A   Clear
5:00 AM 54 °F 46 °F 68% 30.17 in 37 mi SSE 4.5 mph - -  
5:00 AM 53.6 °F 46.4 °F 77% 30.15 in - SSE 4.6 mph - N/A   Clear
5:30 AM 55.4 °F 48.2 °F 77% 30.15 in - SSE 5.8 mph - N/A   Clear
6:00 AM 55 °F 49 °F 76% 30.17 in 31 mi South 4.5 mph - -  
6:00 AM 53.6 °F 48.2 °F 82% 30.15 in - South 3.5 mph - N/A   Clear
6:30 AM 59.0 °F 50.0 °F 72% 30.15 in - Variable 2.3 mph - N/A   Clear
7:00 AM 61 °F 50 °F 57% 30.14 in 31 mi SSE 2.2 mph - -   Clear
7:00 AM 60.8 °F 51.8 °F 72% 30.15 in - SSE 4.6 mph - N/A   Clear
7:30 AM 62.6 °F 50.0 °F 63% 30.15 in - SSE 4.6 mph - N/A   Clear
8:00 AM 66 °F 50 °F 47% 30.12 in 31 mi SSE 4.5 mph - -  
8:00 AM 66.2 °F 50.0 °F 56% 30.12 in - SSE 4.6 mph - N/A   Clear
8:30 AM 68.0 °F 48.2 °F 49% 30.12 in - SE 6.9 mph - N/A   Clear
9:00 AM 71 °F 48 °F 33% 30.09 in 31 mi SSE 6.7 mph - -   Clear
9:00 AM 71.6 °F 48.2 °F 43% 30.12 in - SE 6.9 mph - N/A   Clear
9:30 AM 71.6 °F 48.2 °F 43% 30.12 in - SE 9.2 mph - N/A   Clear
10:00 AM 73 °F 48 °F 30% 30.07 in 31 mi South 6.7 mph - -   Clear
10:00 AM 73.4 °F 48.2 °F 41% 30.09 in - SSE 6.9 mph - N/A   Clear
10:30 AM 75.2 °F 46.4 °F 36% 30.09 in - SSE 9.2 mph - N/A   Clear
11:00 AM 77 °F 46 °F 23% 30.04 in 31 mi SSE 8.9 mph - -   Clear
11:00 AM 77.0 °F 46.4 °F 34% 30.06 in - SE 12.7 mph - N/A   Clear
11:30 AM 78.8 °F 46.4 °F 32% 30.06 in - SE 12.7 mph - N/A   Clear
12:00 PM 79 °F 45 °F 20% 29.99 in 37 mi SE 11.2 mph - -   Clear
12:00 PM 78.8 °F 46.4 °F 32% 30.04 in - SSE 12.7 mph - N/A   Clear
12:30 PM 80.6 °F 44.6 °F 28% 30.04 in - SE 11.5 mph - N/A   Clear
1:00 PM 80 °F 44 °F 18% 29.96 in 37 mi SE 11.2 mph - -   Clear
1:00 PM 80.6 °F 42.8 °F 26% 30.01 in - SE 12.7 mph - N/A   Clear
1:30 PM 80.6 °F 46.4 °F 30% 30.01 in - SSE 10.4 mph - N/A   Clear
2:00 PM 80 °F 44 °F 18% 29.94 in 37 mi SSE 8.9 mph - -   Clear
2:00 PM 80.6 °F 44.6 °F 28% 29.98 in - SSE 10.4 mph - N/A   Clear
2:30 PM 82.4 °F 42.8 °F 25% 29.98 in - SE 12.7 mph - N/A   Clear
3:00 PM 82 °F 44 °F 16% 29.91 in 44 mi ESE 11.2 mph - -   Clear
3:00 PM 82.4 °F 42.8 °F 25% 29.95 in - ESE 13.8 mph - N/A   Clear
3:30 PM 82.4 °F 44.6 °F 26% 29.95 in - SE 13.8 mph - N/A   Clear
4:00 PM 83 °F 45 °F 16% 29.87 in 44 mi SE 11.2 mph - -   Clear
4:00 PM 82.4 °F 44.6 °F 26% 29.92 in - SE 11.5 mph - N/A   Clear
4:30 PM 82.4 °F 44.6 °F 26% 29.92 in - SE 11.5 mph - N/A   Clear
5:00 PM 83 °F 46 °F 17% 29.85 in 44 mi SSE 6.7 mph - -   Clear
5:00 PM 84.2 °F 44.6 °F 25% 29.92 in - SE 11.5 mph - N/A   Clear
5:30 PM 82.4 °F 46.4 °F 28% 29.89 in - SSE 11.5 mph - N/A   Clear
6:00 PM 81 °F 49 °F 22% 29.83 in 47 mi SE 11.2 mph - -   Clear
6:00 PM 80.6 °F 48.2 °F 32% 29.89 in - ESE 13.8 mph - N/A   Clear
6:30 PM 80.6 °F 48.2 °F 32% 29.86 in - SE 12.7 mph - N/A   Clear
7:00 PM 81 °F 48 °F 21% 29.81 in 47 mi SE 13.4 mph - -   Clear
7:00 PM 80.6 °F 50.0 °F 34% 29.86 in - SE 13.8 mph - N/A   Clear
7:30 PM 77.0 °F 50.0 °F 39% 29.86 in - SE 11.5 mph - N/A   Clear
8:00 PM 77 °F 52 °F 31% 29.81 in 31 mi ESE 13.4 mph - -   Clear
8:00 PM 77.0 °F 51.8 °F 41% 29.86 in - ESE 11.5 mph - N/A   Clear
8:30 PM 75.2 °F 50.0 °F 41% 29.86 in - SE 13.8 mph - N/A   Clear
9:00 PM 74 °F 50 °F 32% 29.81 in 31 mi ESE 13.4 mph - -   Clear
9:00 PM 73.4 °F 51.8 °F 47% 29.83 in - ESE 13.8 mph - N/A   Clear
9:30 PM 71.6 °F 51.8 °F 50% 29.86 in - SE 12.7 mph - N/A   Clear
10:00 PM 71 °F 52 °F 40% 29.82 in 31 mi ESE 11.2 mph - -   Clear
10:00 PM 69.8 °F 51.8 °F 53% 29.86 in - ESE 9.2 mph - N/A   Clear
10:30 PM 68.0 °F 51.8 °F 56% 29.86 in - ESE 9.2 mph - N/A   Clear
11:00 PM 69 °F 52 °F 45% 29.81 in 31 mi ESE 11.2 mph - -   Clear
11:00 PM 69.8 °F 51.8 °F 53% 29.83 in - ESE 8.1 mph - N/A   Clear
11:30 PM 66.2 °F 51.8 °F 60% 29.83 in - ESE 6.9 mph - N/A   Clear